Location: Unspecified
(0.0000°N, 0.0000°E)
Time: 21:36:18
(UTC+00:00)

Hubble Space Telescope - Pass Details

Date: 25 January 2020
Orbit: 536 x 540 km, 28.5° (Epoch: 24 February)

Event Time Altitude Azimuth Distance (km) Brightness Sun altitude
Exits shadow 04:44:37 61° 258° (WSW) 606 0.7 -20.6°
Maximum altitude 04:45:16 80° 328° (NNW) 542 0.6 -20.5°
Drops below altitude 10° 04:49:22 10° 57° (ENE) 1,774 3.9 -19.5°
Sets 04:51:38 0° 58° (ENE) 2,663 4.9 -19.0°
